Simultaneous Nadir Overpasses (SNOs) Predictions

Prediction of SNOs between NOAA-20 and AQUA Satellite Orbit:

Table of predicted SNOs for the next 14.0 days since TLE Epoch: 7/31/2021
Index Date (NOAA-20) Time (NOAA-20) Lat,Lon (NOAA-20) SZA (NOAA-20 ) Date (AQUA) Time (AQUA) Lat,Lon (AQUA) SZA (AQUA ) Distance(km) Time Diff (sec)
1 07/31/2021 21:22:54 75.71, 97.21 80.27 07/31/2021 21:23:59 75.70, 97.13 80.24 2.29 65
2 07/31/2021 22:13:25 -76.39, -93.16 100.57 07/31/2021 22:13:12 -76.40, -93.07 100.58 2.79 13
3 08/03/2021 13:39:47 75.80,-146.71 80.82 08/03/2021 13:40:26 75.81,-146.67 80.78 1.03 39
4 08/03/2021 14:30:10 -76.84, 24.32 100.48 08/03/2021 14:29:32 -76.84, 24.33 100.45 0.33 38
5 08/06/2021 05:56:29 76.40, -28.88 80.77 08/06/2021 05:56:43 76.39, -28.95 80.78 2.23 14
6 08/06/2021 06:46:54 -77.31, 142.09 100.41 08/06/2021 06:45:51 -77.31, 141.98 100.33 2.89 63
7 08/08/2021 21:23:00 -75.48, -83.51 97.39 08/08/2021 21:24:05 -75.48, -83.50 97.45 0.36 65
8 08/08/2021 22:13:20 76.58, 87.56 81.27 08/08/2021 22:13:08 76.58, 87.55 81.28 0.39 12
9 08/11/2021 13:39:48 -75.76, 33.14 96.98 08/11/2021 13:40:27 -75.77, 33.21 97.03 2.12 39



Historial Predications of SNOs between NOAA-20 and AQUA
